Date String (YYYY-MM-DD hh:mm:ss) UTC,Instrument flags,Ambient pressure (hPa),Sample flow (lpm),Bypass flow (lpm),Sample temperature (°C),Ambient temperature (°C),ASC tube jacket temperature (°C),LED temperature (°C),Box temperature (°C),Sample RH (%),Span deviation,Mass concentration (μg/m³),Mass concentration (μg/m³),Mass concentration (μg/m³)
DateTimeUTC,F1_M11,P_M11,Q1_M11,Q2_M11,T1_M11,T2_M11,T3_M11,T4_M11,T5_M11,U1_M11,ZSPAN_M11,X0_M11,X2_M11,X1_M11
2021-11-16 05:00:00,,0823.6,5.00,0.00,30.2,29.4,00.0,39.3,32.0,09.2,0000.0,0001.49,0000.24,0000.20
2021-11-16 05:01:00,,0823.6,5.01,0.00,30.2,29.4,00.0,39.3,31.9,09.3,0000.0,0001.48,0000.24,0000.19
2021-11-16 05:02:00,,0823.6,4.99,0.00,30.2,29.4,00.0,39.3,31.9,09.4,0000.0,0001.48,0000.23,0000.19
2021-11-16 05:03:00,,0823.5,5.00,0.00,30.2,29.4,00.0,39.3,31.9,09.4,0000.0,0001.50,0000.23,0000.18
2021-11-16 05:04:00,,0823.4,4.99,0.00,30.2,29.4,00.0,39.3,31.9,09.4,0000.0,0001.55,0000.23,0000.17
2021-11-16 05:05:00,,0823.4,5.00,0.00,30.2,29.4,00.0,39.2,31.9,09.4,0000.0,0002.00,0000.21,0000.17
2021-11-16 05:06:00,,0823.4,5.00,0.00,30.2,29.4,00.0,39.2,31.9,09.5,0000.0,0001.94,0000.21,0000.16
2021-11-16 05:07:00,,0823.3,5.00,0.00,30.1,29.3,00.0,39.2,31.8,09.5,0000.0,0001.42,0000.23,0000.16
2021-11-16 05:08:00,,0823.3,5.00,0.00,30.1,29.3,00.0,39.2,31.7,09.5,0000.0,0001.48,0000.22,0000.16
2021-11-16 05:09:00,,0823.3,5.01,0.00,30.1,29.3,00.0,39.2,31.8,09.5,0000.0,0001.97,0000.22,0000.16
2021-11-16 05:10:00,,0823.2,4.99,0.00,30.1,29.3,00.0,39.2,31.7,09.6,0000.0,0001.99,0000.23,0000.16
2021-11-16 05:11:00,,0823.2,5.00,0.00,30.0,29.2,00.0,39.2,31.7,09.6,0000.0,0002.60,0000.25,0000.16
2021-11-16 05:12:00,,0823.2,5.01,0.00,30.0,29.2,00.0,39.2,31.7,09.6,0000.0,0002.83,0000.26,0000.16
2021-11-16 05:13:00,,0823.2,4.99,0.00,30.0,29.2,00.0,39.2,31.7,09.6,0000.0,0002.89,0000.28,0000.16
2021-11-16 05:14:00,,0823.2,5.00,0.00,30.0,29.2,00.0,39.1,31.7,09.6,0000.0,0002.89,0000.29,0000.16
2021-11-16 05:15:00,,0823.1,5.02,0.00,30.0,29.2,00.0,39.1,31.7,09.5,0000.0,0002.81,0000.27,0000.16
2021-11-16 05:16:00,,0823.1,5.00,0.00,30.0,29.2,00.0,39.1,31.7,09.6,0000.0,0002.71,0000.28,0000.16
2021-11-16 05:17:00,,0822.9,4.99,0.00,30.0,29.1,00.0,39.1,31.7,09.6,0000.0,0003.46,0000.29,0000.16
2021-11-16 05:18:00,,0822.9,5.01,0.00,29.9,29.1,00.0,39.1,31.6,09.6,0000.0,0003.55,0000.30,0000.16
2021-11-16 05:19:00,,0822.8,5.00,0.00,29.9,29.1,00.0,39.1,31.6,09.6,0000.0,0003.51,0000.30,0000.16
2021-11-16 05:20:00,,0822.8,5.00,0.00,29.9,29.1,00.0,39.1,31.6,09.7,0000.0,0002.95,0000.29,0000.15
2021-11-16 05:21:00,,0822.8,5.00,0.00,29.9,29.1,00.0,39.0,31.6,09.7,0000.0,0002.98,0000.29,0000.15
2021-11-16 05:22:00,,0822.8,5.00,0.00,29.9,29.1,00.0,39.0,31.6,09.7,0000.0,0002.46,0000.28,0000.15
2021-11-16 05:23:00,,0822.8,5.00,0.00,29.9,29.1,00.0,39.0,31.5,09.7,0000.0,0002.27,0000.28,0000.15
2021-11-16 05:24:00,,0822.7,5.00,0.00,29.9,29.1,00.0,39.0,31.5,09.7,0000.0,0002.24,0000.27,0000.15
2021-11-16 05:25:00,,0822.7,5.00,0.00,29.9,29.1,00.0,39.0,31.6,09.7,0000.0,0002.24,0000.27,0000.14
2021-11-16 05:26:00,,0822.6,5.00,0.00,29.9,29.1,00.0,39.0,31.6,09.6,0000.0,0002.31,0000.28,0000.14
2021-11-16 05:27:00,,0822.6,5.00,0.00,29.9,29.1,00.0,39.0,31.6,09.6,0000.0,0002.24,0000.27,0000.14
2021-11-16 05:28:00,,0822.6,4.99,0.00,29.9,29.1,00.0,39.0,31.6,09.6,0000.0,0000.62,0000.25,0000.14
2021-11-16 05:29:00,,0822.5,5.02,0.00,29.9,29.2,00.0,39.0,31.6,09.6,0000.0,0000.52,0000.22,0000.14
2021-11-16 05:30:00,,0822.5,5.00,0.00,29.9,29.2,00.0,39.0,31.6,09.6,0000.0,0000.66,0000.24,0000.14
2021-11-16 05:31:00,,0822.5,5.00,0.00,29.9,29.2,00.0,39.0,31.6,09.5,0000.0,0000.74,0000.27,0000.14
2021-11-16 05:32:00,,0822.4,5.00,0.00,29.9,29.1,00.0,39.0,31.6,09.5,0000.0,0000.77,0000.28,0000.14
2021-11-16 05:33:00,,0822.4,5.01,0.00,29.9,29.1,00.0,39.0,31.6,09.5,0000.0,0000.71,0000.27,0000.14
2021-11-16 05:34:00,,0822.5,5.00,0.00,29.9,29.1,00.0,39.0,31.6,09.6,0000.0,0000.62,0000.26,0000.14
2021-11-16 05:35:00,,0822.5,5.00,0.00,29.9,29.1,00.0,39.0,31.6,09.5,0000.0,0000.62,0000.26,0000.14
2021-11-16 05:36:00,,0822.5,4.99,0.00,29.9,29.1,00.0,39.0,31.6,09.5,0000.0,0000.60,0000.24,0000.14
2021-11-16 05:37:00,,0822.4,5.00,0.00,29.9,29.1,00.0,39.0,31.6,09.6,0000.0,0002.20,0000.24,0000.14
2021-11-16 05:38:00,,0822.4,5.01,0.00,29.9,29.1,00.0,39.0,31.6,09.5,0000.0,0002.56,0000.25,0000.14
2021-11-16 05:39:00,,0822.4,4.99,0.00,29.9,29.1,00.0,39.0,31.6,09.5,0000.0,0003.10,0000.27,0000.14
2021-11-16 05:40:00,,0822.4,5.01,0.00,29.9,29.1,00.0,39.0,31.6,09.5,0000.0,0003.13,0000.27,0000.13
2021-11-16 05:41:00,,0822.3,4.99,0.00,29.9,29.1,00.0,39.0,31.6,09.5,0000.0,0003.03,0000.27,0000.13
2021-11-16 05:42:00,,0822.4,5.00,0.00,30.0,29.2,00.0,39.0,31.6,09.4,0000.0,0002.94,0000.24,0000.13
2021-11-16 05:43:00,,0822.4,5.00,0.00,30.0,29.2,00.0,39.0,31.6,09.5,0000.0,0002.87,0000.22,0000.14
2021-11-16 05:44:00,,0822.4,4.99,0.00,30.0,29.2,00.0,39.0,31.6,09.5,0000.0,0002.88,0000.22,0000.14
2021-11-16 05:45:00,,0822.4,5.01,0.00,30.0,29.2,00.0,39.0,31.7,09.5,0000.0,0002.89,0000.23,0000.14
2021-11-16 05:46:00,,0822.6,4.98,0.00,30.0,29.2,00.0,39.0,31.7,09.4,0000.0,0002.94,0000.23,0000.14
2021-11-16 05:47:00,,0822.6,5.00,0.00,30.0,29.2,00.0,39.0,31.7,09.5,0000.0,0003.47,0000.23,0000.14
2021-11-16 05:48:00,,0822.6,5.01,0.00,30.0,29.2,00.0,39.0,31.7,09.6,0000.0,0002.35,0000.24,0000.14
2021-11-16 05:49:00,,0822.5,5.00,0.00,30.0,29.2,00.0,39.0,31.7,09.5,0000.0,0001.58,0000.24,0000.15
2021-11-16 05:50:00,,0822.5,5.00,0.00,30.0,29.2,00.0,39.0,31.8,09.5,0000.0,0000.92,0000.22,0000.15
2021-11-16 05:51:00,,0822.4,5.00,0.00,30.0,29.3,00.0,39.0,31.7,09.4,0000.0,0000.90,0000.22,0000.16
2021-11-16 05:52:00,,0822.3,5.00,0.00,30.0,29.3,00.0,39.0,31.8,09.4,0000.0,0001.32,0000.20,0000.16
2021-11-16 05:53:00,,0822.2,5.00,0.00,30.1,29.3,00.0,39.1,31.8,09.4,0000.0,0002.01,0000.20,0000.16
2021-11-16 05:54:00,,0822.3,4.99,0.00,30.1,29.3,00.0,39.1,31.8,09.4,0000.0,0002.02,0000.20,0000.15
2021-11-16 05:55:00,,0822.4,5.00,0.00,30.1,29.3,00.0,39.1,31.7,09.4,0000.0,0002.06,0000.21,0000.15
2021-11-16 05:56:00,,0822.4,5.00,0.00,30.1,29.3,00.0,39.1,31.7,09.5,0000.0,0002.06,0000.21,0000.15
2021-11-16 05:57:00,,0822.3,5.01,0.00,30.1,29.3,00.0,39.1,31.7,09.5,0000.0,0002.09,0000.23,0000.16
2021-11-16 05:58:00,,0822.4,4.99,0.00,30.1,29.3,00.0,39.1,31.8,09.5,0000.0,0001.63,0000.25,0000.16
2021-11-16 05:59:00,,0822.4,5.02,0.00,30.1,29.3,00.0,39.1,31.8,09.6,0000.0,0001.58,0000.24,0000.16
